Wind_Speed
11 12 11 12 13 13 13 14 14 14 13 13 13 12 11 10 9 9 9 8 7 7 7 7 6 6 6 6 6 7 7 7 7 6 6 6 5 5 4 4 3 3 3 3 3 3 4 3 3
11 12 12 12 14 14 15 15 16 15 14 14 13 13 12 11 10 10 9 9 8 8 7 7 7 7 7 7 6 6 7 7 7 7 6 5 5 4 4 3 2 2 2 2 3 3 4 4 3
11 11 12 13 14 16 16 16 15 14 14 14 14 13 12 11 11 10 10 10 9 9 8 8 7 7 7 6 6 7 7 7 6 6 5 5 4 4 3 3 2 2 2 2 3 3 4 4 4
10 11 12 14 15 16 16 15 15 14 14 14 14 13 12 12 11 11 11 10 10 10 9 9 8 8 8 7 6 7 7 7 6 6 6 5 3 3 2 2 1 1 2 2 3 3 3 4 5
10 11 12 13 15 16 16 16 16 15 14 13 13 13 13 12 12 11 11 10 10 10 10 10 9 9 10 9 8 7 7 6 6 6 5 4 3 2 2 1 1 1 2 2 3 3 4 5 5
10 11 12 13 14 15 16 16 16 15 14 13 13 13 13 12 11 11 11 11 10 11 11 11 11 10 10 9 8 7 7 6 6 5 4 3 2 2 1 1 1 1 2 3 3 3 5 5 6
11 11 12 13 14 14 15 15 16 15 14 13 13 13 13 12 12 11 11 11 10 10 10 11 11 10 9 9 8 7 7 6 6 5 4 3 2 1 1 1 0 1 2 2 3 3 4 5 5
10 11 13 13 13 14 14 15 15 14 13 13 12 12 12 12 12 11 11 10 10 10 10 10 10 9 9 8 8 7 7 6 6 5 5 4 3 2 2 1 0 1 2 3 3 4 4 4 5
10 11 11 12 13 13 13 14 15 14 13 13 12 12 12 12 12 11 11 10 9 9 9 9 9 8 7 7 7 6 6 6 6 5 5 4 3 2 3 3 2 1 2 3 3 4 5 6 5
10 11 11 12 13 13 13 14 14 14 13 13 12 12 12 11 11 11 11 10 9 9 9 8 8 7 7 6 6 6 6 6 5 5 4 4 3 3 3 3 2 2 2 3 3 4 6 7 7
8 10 11 12 12 12 12 13 13 13 13 12 12 11 11 10 10 10 10 10 9 9 9 9 8 7 6 6 6 6 5 5 5 5 5 5 4 3 3 3 3 2 2 3 4 4 5 7 7
6 8 9 10 10 11 12 12 12 12 12 11 11 10 10 10 10 10 10 10 10 9 9 8 8 7 6 5 5 5 5 5 5 5 5 5 4 4 3 3 3 2 2 3 3 4 5 7 6
4 6 6 7 8 10 11 11 11 11 11 11 11 10 10 10 9 9 9 9 9 8 7 7 7 7 6 5 5 5 5 5 4 4 4 4 4 3 3 4 4 3 2 2 2 3 4 5 5
3 3 4 4 5 7 9 10 10 10 9 9 9 10 9 10 9 9 8 7 7 7 7 7 6 6 6 5 5 5 5 4 4 5 4 4 3 3 3 4 4 4 3 2 2 3 4 5 6
2 2 3 4 4 6 7 8 9 9 8 8 8 8 8 9 9 8 8 7 7 7 6 5 5 5 5 4 4 4 4 3 4 5 5 4 4 3 3 4 4 3 3 2 3 3 4 5 5
2 2 2 3 4 5 6 7 8 8 8 7 7 7 7 8 9 9 8 7 6 6 5 5 4 4 4 4 4 4 4 4 4 5 6 5 5 5 3 4 4 4 3 3 3 4 5 5 6
4 3 3 4 4 4 5 6 7 7 8 7 7 7 7 7 8 8 8 8 7 6 5 5 4 4 4 4 5 4 4 5 5 6 6 7 6 6 5 5 4 4 4 4 4 4 5 6 7
5 5 4 4 5 4 3 4 5 6 7 7 7 6 6 7 7 7 8 7 7 6 5 5 5 5 4 5 5 5 5 5 6 7 7 7 7 7 7 6 5 5 5 5 5 6 6 7 8
7 7 6 6 6 6 4 4 6 6 7 7 6 5 5 5 6 6 7 6 6 6 4 6 6 5 5 5 5 5 6 6 7 7 7 8 8 7 7 7 7 6 6 6 6 7 7 8 8
9 9 8 8 7 7 6 5 6 6 6 5 5 5 5 5 6 6 6 6 5 5 5 6 5 5 5 5 6 6 6 6 7 8 8 8 8 8 7 8 8 8 8 7 7 8 8 9 9
9 9 9 8 9 8 7 7 7 7 7 6 6 6 6 6 6 6 6 5 5 5 5 5 6 6 6 6 7 7 7 7 8 8 8 8 8 8 9 9 10 10 11 11 11 10 10 10 11
9 9 9 9 8 8 8 8 8 8 8 8 7 7 7 7 6 6 6 6 5 5 5 6 7 6 6 7 7 8 8 8 8 8 8 9 9 10 11 11 12 12 12 13 13 12 13 13 13
10 11 11 10 10 10 10 10 8 9 9 9 9 8 9 8 8 7 7 7 7 7 6 6 7 7 7 7 8 8 8 9 9 10 10 11 11 12 13 13 14 14 14 14 14 14 14 15 15
11 11 11 12 12 12 12 13 11 11 11 10 10 10 10 10 9 8 8 8 8 7 7 7 8 8 8 8 9 9 9 10 10 11 11 12 13 14 14 14 15 15 15 15 15 15 16 16 17
11 11 11 12 13 13 13 14 13 12 12 12 12 11 11 11 10 10 10 9 8 8 8 8 8 9 9 8 9 10 10 10 11 11 13 14 14 15 15 16 16 16 16 17 17 17 17 17 18
13 12 13 13 14 13 14 14 14 13 13 13 14 13 12 12 11 11 11 10 10 9 9 9 9 10 10 10 10 10 11 12 13 13 14 15 15 15 15 17 16 16 16 16 17 17 18 18 19
14 13 13 14 14 14 15 14 13 12 12 13 13 12 12 12 11 12 12 10 10 10 10 10 11 11 11 11 11 11 12 13 13 14 15 16 16 15 16 16 16 17 17 17 17 18 18 19 20
15 14 14 14 16 16 16 14 13 13 13 13 13 12 12 12 11 11 10 9 10 11 12 12 12 12 12 13 13 13 13 14 14 15 17 18 17 17 16 17 17 18 17 18 18 18 19 20 20
15 15 15 15 16 17 17 16 14 15 15 15 14 14 13 13 12 11 11 11 11 12 13 13 14 15 15 15 14 15 15 15 16 17 19 18 18 18 18 19 19 18 18 18 19 19 20 21 21
16 16 17 17 18 18 19 18 16 16 16 16 15 15 15 14 14 14 14 14 13 14 14 15 15 16 17 17 16 16 16 16 17 18 19 20 20 20 20 20 19 19 19 19 20 20 21 21 22
Wind_Direction
77 71 68 66 66 63 61 59 58 58 58 56 55 56 56 55 58 62 63 63 62 62 63 67 74 86 85 86 87 85 90 94 91 98 108 115 122 127 131 134 143 155 165 180 196 193 190 181 189
76 71 69 68 69 65 63 62 61 61 58 54 52 52 52 56 61 62 62 61 58 58 61 72 80 89 93 91 90 86 88 94 90 92 102 113 119 132 134 143 150 157 167 187 205 202 201 198 196
75 72 70 70 70 69 66 64 60 59 57 55 52 53 54 58 60 60 60 58 57 56 59 70 82 94 93 95 96 92 87 92 90 95 104 113 109 113 121 125 136 156 177 201 215 214 208 207 206
77 73 71 71 71 69 64 62 59 55 54 55 54 56 57 58 60 61 61 59 57 56 58 63 79 96 99 107 101 90 86 90 89 94 101 108 102 107 117 126 128 193 200 204 213 208 208 211 211
79 75 73 72 73 67 62 59 56 53 52 53 53 55 57 57 58 59 59 57 57 56 58 59 72 93 102 100 95 88 85 88 86 90 95 102 98 106 116 120 152 223 220 213 206 213 215 212 209
78 73 74 75 69 66 61 59 57 53 51 52 52 55 56 54 56 58 57 55 57 58 62 66 70 85 93 95 91 84 81 79 80 82 82 86 80 93 104 100 238 240 241 225 233 234 223 218 218
77 75 75 72 66 63 60 58 54 51 53 52 52 55 54 52 52 55 56 56 56 61 66 70 73 77 82 87 87 78 74 76 76 74 77 76 71 58 60 39 320 256 255 240 234 241 226 227 220
79 78 72 68 63 58 59 58 54 53 55 53 51 54 55 54 52 54 55 58 56 58 65 70 71 73 79 82 81 77 75 74 71 67 62 64 60 48 40 25 358 262 244 233 230 230 231 223 223
81 76 72 68 62 58 59 60 54 51 53 53 53 50 51 51 51 51 54 57 56 57 64 68 66 67 72 77 76 74 72 74 71 64 55 47 37 26 25 20 358 273 265 257 251 241 229 222 227
81 76 68 67 63 58 56 55 51 50 50 51 51 51 48 47 47 48 52 53 56 61 63 61 61 64 69 71 68 68 66 61 59 56 49 39 29 25 12 10 341 301 277 268 263 252 244 234 233
77 71 71 68 62 59 56 53 49 48 50 49 50 51 48 46 45 47 52 55 58 62 61 58 58 60 66 69 69 66 64 54 45 41 37 32 25 28 24 13 335 305 282 274 264 253 248 240 231
68 64 61 55 55 53 52 52 50 50 46 44 44 45 48 44 42 45 52 55 56 58 54 51 52 55 67 72 70 68 60 48 42 39 32 25 19 26 24 21 1 329 304 292 272 250 244 234 228
45 59 58 49 47 46 45 48 50 50 44 41 39 40 45 44 42 44 50 56 56 54 53 52 49 54 61 65 67 64 53 48 43 32 26 17 7 25 18 7 1 355 338 314 292 257 236 227 229
9 61 62 47 47 42 38 41 43 44 43 42 41 38 40 41 42 41 46 53 55 55 56 55 49 54 57 61 56 48 48 43 26 19 15 10 1 15 19 9 5 358 345 325 293 255 238 232 235
330 38 38 28 19 30 33 37 38 38 36 39 39 36 38 34 35 34 34 41 50 54 58 54 52 56 55 51 43 42 41 33 14 10 6 355 343 345 356 353 0 356 347 324 296 270 250 245 246
291 316 353 352 356 18 27 32 28 26 29 36 36 34 36 35 36 31 26 28 32 35 42 45 51 54 47 35 32 27 18 7 353 351 352 348 340 337 343 346 346 341 330 320 303 284 267 259 255
279 289 319 329 340 11 16 17 19 13 16 23 25 26 27 24 24 26 23 24 22 18 26 32 43 44 39 29 19 9 3 351 341 339 339 339 333 329 326 327 329 326 320 313 298 286 275 268 265
267 272 287 303 322 323 341 355 353 353 1 10 11 10 16 13 16 18 17 18 15 11 13 20 20 21 23 15 3 356 349 341 334 332 326 327 327 325 320 314 313 316 308 308 301 289 281 275 269
254 267 276 285 301 302 300 322 330 340 351 0 357 358 357 360 4 3 2 7 8 10 10 360 1 4 4 358 350 345 345 338 334 331 325 323 322 319 314 310 309 309 303 301 300 291 285 282 272
250 263 271 274 279 289 290 301 318 322 333 343 342 343 337 335 343 346 350 352 354 350 350 349 349 348 346 342 341 338 332 329 329 326 327 325 322 319 313 306 307 306 302 295 296 292 286 278 273
254 261 268 273 276 285 290 296 307 319 321 322 325 328 327 330 332 327 331 335 339 339 338 337 337 334 333 332 331 330 328 323 318 318 320 320 319 318 314 308 305 303 300 298 296 291 289 285 279
251 259 265 266 275 287 292 295 302 310 315 316 314 313 311 311 309 308 314 319 323 319 319 321 323 324 327 326 325 325 325 323 318 315 314 312 311 310 308 306 303 300 300 298 296 295 291 289 284
249 256 262 269 276 282 292 297 309 307 313 317 317 311 308 306 300 302 307 310 311 310 308 312 316 316 320 322 320 320 320 321 319 315 311 308 305 304 304 301 297 295 295 295 294 292 291 290 287
251 255 265 273 279 286 297 303 308 310 310 310 312 310 302 301 295 295 300 303 304 302 304 307 309 308 313 316 319 320 316 317 314 313 309 304 302 302 301 300 297 294 293 292 291 290 289 288 286
251 255 267 277 283 293 296 301 308 309 306 305 304 303 298 296 295 295 298 300 301 298 300 303 306 308 312 313 315 315 314 313 312 310 308 306 301 300 300 300 299 296 295 294 291 287 287 287 285
255 261 270 282 286 291 295 298 307 305 304 305 304 300 297 296 296 294 294 293 291 292 298 303 303 305 308 305 305 307 311 312 312 309 308 307 303 301 303 302 300 297 295 295 294 291 289 288 286
258 264 272 279 285 290 295 297 302 303 302 303 305 302 297 295 294 292 288 289 291 292 297 303 305 302 302 303 300 301 305 309 309 306 308 307 304 302 302 302 299 297 296 296 294 292 292 291 288
258 261 266 274 284 290 295 299 301 302 305 307 308 304 297 294 293 295 289 288 293 294 294 295 299 299 300 302 303 302 303 303 302 300 303 304 304 303 301 298 298 298 298 297 295 293 293 292 289
253 258 262 271 281 289 294 301 301 301 302 305 303 301 296 293 291 292 290 291 295 294 293 291 293 295 298 300 299 299 300 300 301 299 301 301 303 303 300 298 298 299 297 296 296 295 293 293 292
251 256 261 270 279 284 289 296 298 300 300 304 306 303 296 292 293 292 290 289 292 292 290 289 295 297 298 298 297 298 297 298 299 299 298 299 301 300 300 298 298 298 296 295 296 295 294 294 294
Height
5878 5878 5878 5878 5878 5876 5874 5873 5872 5871 5871 5870 5869 5868 5868 5868 5868 5870 5867 5865 5865 5864 5863 5863 5862 5862 5863 5864 5864 5864 5865 5866 5866 5866 5867 5868 5870 5871 5872 5873 5874 5875 5876 5877 5878 5879 5879 5880 5881
5880 5880 5881 5880 5878 5876 5876 5874 5873 5873 5873 5871 5870 5869 5869 5869 5868 5868 5867 5866 5865 5864 5863 5862 5862 5862 5863 5864 5865 5865 5866 5866 5867 5867 5868 5869 5870 5871 5872 5873 5874 5875 5876 5877 5877 5878 5879 5880 5881
5882 5882 5883 5881 5879 5878 5877 5876 5875 5875 5874 5873 5872 5871 5871 5870 5869 5869 5868 5867 5866 5865 5863 5862 5862 5862 5863 5864 5865 5866 5867 5867 5868 5868 5869 5870 5871 5872 5872 5873 5874 5875 5875 5876 5877 5878 5879 5879 5880
5884 5885 5884 5883 5880 5879 5878 5878 5877 5876 5875 5875 5874 5873 5872 5872 5871 5870 5869 5868 5867 5866 5864 5862 5861 5861 5862 5864 5865 5867 5867 5868 5869 5869 5870 5870 5871 5872 5873 5873 5874 5874 5875 5876 5876 5877 5878 5879 5880
5886 5886 5885 5883 5882 5881 5880 5879 5878 5877 5877 5876 5876 5875 5874 5873 5872 5871 5870 5869 5868 5867 5865 5862 5859 5859 5862 5865 5866 5867 5868 5869 5869 5870 5870 5871 5871 5872 5872 5873 5873 5874 5874 5875 5876 5876 5877 5878 5879
5888 5887 5886 5885 5884 5883 5882 5881 5880 5879 5878 5878 5878 5877 5876 5875 5874 5873 5872 5870 5869 5868 5867 5864 5860 5860 5863 5866 5867 5868 5869 5869 5870 5870 5871 5871 5871 5872 5872 5873 5873 5873 5874 5874 5874 5875 5875 5877 5878
5890 5888 5887 5886 5885 5884 5884 5882 5882 5881 5880 5880 5879 5878 5877 5877 5876 5875 5873 5872 5871 5869 5868 5867 5865 5865 5867 5868 5869 5870 5870 5870 5870 5871 5871 5871 5871 5871 5871 5872 5872 5872 5872 5873 5873 5874 5874 5876 5877
5891 5891 5889 5888 5887 5886 5886 5884 5884 5883 5882 5882 5881 5880 5879 5878 5877 5876 5875 5874 5872 5871 5870 5869 5869 5869 5869 5870 5871 5871 5871 5871 5871 5871 5871 5871 5871 5871 5872 5872 5871 5871 5871 5871 5872 5872 5873 5874 5876
5892 5893 5891 5890 5889 5889 5888 5886 5886 5885 5884 5883 5882 5881 5881 5879 5878 5877 5876 5875 5874 5873 5872 5871 5871 5871 5871 5871 5871 5872 5872 5872 5872 5871 5871 5871 5871 5871 5871 5871 5870 5870 5870 5870 5870 5871 5872 5873 5874
5894 5893 5893 5892 5891 5890 5889 5888 5888 5887 5886 5885 5884 5882 5882 5881 5880 5878 5877 5876 5875 5874 5873 5873 5872 5872 5872 5872 5872 5872 5872 5872 5872 5872 5871 5871 5871 5871 5871 5870 5869 5869 5868 5868 5868 5869 5870 5871 5873
5895 5895 5894 5893 5893 5892 5890 5890 5889 5888 5887 5886 5885 5884 5883 5882 5881 5880 5878 5877 5876 5875 5874 5874 5873 5873 5873 5873 5873 5873 5873 5873 5873 5872 5872 5871 5871 5871 5871 5870 5868 5868 5867 5867 5867 5867 5868 5869 5871
5896 5896 5895 5895 5894 5893 5892 5891 5891 5890 5889 5888 5887 5885 5884 5883 5882 5881 5879 5878 5877 5876 5876 5875 5874 5874 5874 5874 5874 5874 5874 5873 5873 5872 5872 5872 5871 5871 5870 5869 5868 5867 5866 5866 5866 5866 5867 5868 5870
5897 5897 5897 5896 5896 5895 5894 5892 5892 5891 5890 5889 5888 5886 5885 5884 5883 5882 5881 5880 5879 5877 5877 5876 5875 5875 5875 5875 5874 5874 5874 5873 5873 5873 5872 5872 5871 5871 5870 5869 5868 5867 5866 5866 5865 5865 5866 5867 5869
5898 5898 5898 5897 5896 5896 5895 5894 5893 5892 5891 5890 5889 5888 5887 5886 5884 5883 5882 5881 5880 5879 5878 5877 5876 5876 5875 5875 5875 5874 5874 5873 5873 5873 5872 5872 5871 5871 5870 5869 5868 5867 5866 5866 5865 5866 5866 5867 5869
5899 5899 5899 5898 5897 5896 5896 5896 5894 5893 5892 5891 5890 5889 5888 5886 5885 5884 5882 5881 5881 5879 5878 5878 5877 5877 5876 5875 5875 5874 5874 5873 5873 5873 5872 5871 5871 5870 5869 5869 5868 5867 5867 5866 5866 5866 5866 5867 5868
5900 5900 5899 5899 5897 5897 5898 5897 5896 5894 5892 5891 5890 5889 5888 5887 5886 5884 5883 5882 5881 5879 5878 5878 5877 5877 5877 5876 5875 5875 5874 5874 5873 5872 5871 5871 5870 5869 5868 5868 5867 5867 5866 5866 5865 5865 5866 5866 5866
5900 5900 5899 5899 5898 5897 5897 5896 5896 5894 5893 5892 5891 5890 5889 5887 5886 5885 5883 5882 5881 5880 5879 5878 5877 5877 5876 5876 5875 5874 5874 5873 5872 5872 5871 5870 5869 5868 5867 5867 5866 5866 5865 5865 5864 5864 5864 5864 5865
5899 5899 5899 5899 5898 5898 5897 5897 5896 5894 5893 5892 5891 5890 5888 5887 5886 5885 5884 5882 5881 5879 5878 5878 5877 5877 5876 5875 5875 5874 5873 5873 5872 5871 5870 5869 5868 5867 5866 5866 5865 5864 5864 5863 5863 5863 5863 5863 5863
5898 5898 5898 5898 5898 5898 5897 5896 5895 5894 5893 5891 5890 5889 5888 5887 5886 5885 5883 5882 5881 5879 5878 5878 5877 5876 5875 5875 5874 5873 5873 5872 5871 5870 5869 5868 5867 5866 5865 5864 5864 5863 5862 5862 5861 5861 5861 5860 5860
5897 5897 5897 5897 5897 5897 5896 5896 5895 5893 5892 5891 5890 5889 5887 5886 5885 5884 5883 5881 5880 5879 5878 5878 5877 5876 5875 5874 5873 5872 5871 5870 5870 5868 5867 5866 5866 5865 5864 5863 5862 5861 5860 5860 5859 5859 5858 5858 5857
5896 5896 5896 5896 5896 5896 5895 5895 5894 5893 5892 5891 5889 5888 5886 5885 5884 5884 5882 5881 5879 5878 5878 5877 5876 5875 5874 5873 5872 5871 5870 5869 5868 5867 5865 5865 5864 5863 5862 5861 5860 5859 5858 5857 5857 5856 5855 5855 5855
5894 5895 5894 5894 5894 5894 5894 5893 5893 5892 5891 5890 5888 5887 5886 5884 5883 5882 5881 5880 5878 5877 5877 5876 5875 5874 5872 5871 5871 5870 5869 5868 5867 5865 5864 5863 5862 5861 5860 5859 5858 5857 5856 5855 5854 5853 5852 5852 5851
5892 5893 5893 5892 5892 5892 5892 5891 5892 5890 5889 5888 5887 5886 5885 5883 5882 5881 5880 5878 5877 5876 5875 5875 5874 5873 5871 5870 5869 5868 5867 5866 5865 5864 5862 5861 5860 5859 5858 5856 5855 5854 5852 5851 5850 5850 5849 5848 5847
5890 5891 5891 5890 5890 5891 5891 5890 5890 5888 5887 5887 5886 5884 5883 5882 5880 5879 5878 5877 5875 5874 5873 5873 5872 5871 5870 5869 5868 5866 5865 5864 5862 5861 5860 5859 5857 5856 5854 5853 5851 5850 5849 5848 5847 5846 5845 5844 5843
5888 5889 5889 5889 5888 5889 5888 5887 5888 5887 5885 5884 5883 5882 5881 5879 5878 5877 5876 5875 5873 5872 5872 5871 5870 5869 5868 5866 5865 5864 5862 5861 5860 5858 5857 5855 5854 5852 5850 5849 5848 5846 5845 5844 5842 5841 5840 5839 5839
5886 5887 5888 5887 5886 5886 5885 5884 5886 5885 5883 5882 5881 5880 5878 5877 5876 5875 5874 5873 5872 5871 5869 5868 5867 5866 5865 5864 5863 5861 5860 5858 5857 5855 5854 5852 5850 5848 5847 5845 5843 5842 5841 5839 5838 5837 5836 5835 5834
5883 5884 5885 5884 5884 5883 5883 5883 5883 5882 5881 5879 5878 5877 5876 5874 5873 5872 5871 5870 5869 5868 5867 5866 5865 5864 5863 5861 5860 5859 5857 5855 5854 5852 5850 5848 5846 5844 5843 5841 5839 5838 5836 5835 5834 5832 5831 5830 5828
5881 5882 5882 5882 5881 5880 5880 5880 5880 5879 5878 5877 5876 5874 5873 5872 5871 5869 5868 5867 5867 5866 5864 5863 5862 5861 5859 5858 5857 5855 5854 5852 5850 5848 5847 5844 5842 5840 5838 5837 5835 5833 5832 5830 5829 5827 5826 5824 5823
5878 5879 5878 5878 5878 5878 5877 5879 5878 5876 5875 5873 5872 5871 5869 5868 5867 5866 5865 5864 5863 5862 5861 5860 5859 5858 5856 5855 5853 5852 5850 5848 5846 5844 5842 5839 5837 5835 5834 5832 5830 5829 5827 5826 5824 5822 5820 5819 5817
5874 5875 5875 5875 5875 5874 5874 5877 5874 5872 5871 5870 5869 5867 5865 5864 5863 5862 5861 5860 5859 5858 5857 5856 5855 5854 5852 5851 5849 5848 5846 5844 5842 5840 5838 5836 5833 5831 5829 5827 5826 5824 5822 5820 5819 5817 5815 5813 5811